Regional Weather Roundup
Issued by NWS Columbia, SC

Home | Current Version | Previous Version | Text Only | Print | Product List | Glossary On
Versions: 1 2 3 4 5 6 7 8 9 10 11 12 13 14 15 16 17 18 19 20 21 22 23 24 25 26 27 28 29 30 31 32 33 34 35 36 37 38 39 40 41 42 43 44 45 46 47 48 49 50
000
ASUS42 KCAE 040510
RWRCAE
REGIONAL WEATHER ROUNDUP
NATIONAL WEATHER SERVICE COLUMBIA SC
100 AM EDT SAT JUL 04 2015

NOTE: "FAIR" INDICATES FEW OR NO CLOUDS BELOW 12,000 FEET WITH NO
SIGNIFICANT WEATHER AND/OR OBSTRUCTIONS TO VISIBILITY.

NOT ALL STATIONS ARE QUALITY CONTROLLED BY THE NATIONAL
WEATHER SERVICE. USE DATA WITH CAUTION...ESPECIALLY
DEWPOINT OBSERVATIONS.

SCZ001>056-GAZ040-063>065-077-040600-
...UPSTATE SOUTH CAROLINA...

CITY           SKY/WX    TMP DP  RH WIND       PRES   REMARKS
ANDERSON       MOCLDY    74  66  76 SW7       30.01F
SPARTANBURG      N/A     73  68  83 SW9       30.00S
CLEMSON        PTCLDY    74  66  76 W7        30.02F
GREENVILLE     PTCLDY    73  64  73 SW9       30.02S
GREENWOOD      CLOUDY    75  69  81 W6        30.03F
GREER          PTCLDY    73  65  75 W10       30.00S
ROCK HILL      PTCLDY    75  66  73 SW9       29.98S
CHESTER        MOCLDY    77  64  65 SW6       29.99F


...CENTRAL SOUTH CAROLINA...

CITY           SKY/WX    TMP DP  RH WIND       PRES   REMARKS
COLUMBIA APT   PTCLDY    77  70  79 SW8       30.00F
COLUMBIA OWENS MOCLDY    77  70  79 SW5       30.01F
DARLINGTON     CLOUDY    79  66  65 W13       29.98S
FLORENCE       CLOUDY    80  68  66 SW10      29.97S
MCENTIRE ANGB  MOCLDY    76  70  82 S2        30.01F
ORANGEBURG     MOCLDY    75  69  81 CALM      30.02F
SUMTER SHAW    MOCLDY    76  69  80 SW9       29.99S
NEWBERRY       MOCLDY    73  68  83 W7        30.04F
BARNWELL       FAIR      73  73 100 CALM      30.03F
MANNING        FAIR      77  68  73 SW6       30.01F
CAMDEN         FAIR      81  66  61 SW14      30.00S
LANCASTER      MOCLDY    75  68  78 SW13      29.99S
WINNSBORO      MOCLDY    77  68  73 SW8       30.01S


...EASTERN AND COASTAL SOUTH CAROLINA...

CITY           SKY/WX    TMP DP  RH WIND       PRES   REMARKS
MYRTLE BEACH   CLEAR     79  72  78 SW8       30.02S
N MYRTLE BCH   PTCLDY    79  70  74 SW15G21   29.98S
CONWAY         FAIR      73  72  94 S5        29.99F FOG
MARION         FAIR      77  68  73 SW8       29.98S
HARTSVILLE     FAIR      79  64  61 SW8       29.97F
FLORENCE       CLOUDY    80  68  66 SW10      29.97S
DARLINGTON     CLOUDY    79  66  65 W13       29.98S
CHARLESTON APT PTCLDY    79  75  87 SW10      30.01F
MOUNT PLEASANT LGT RAIN  81  75  83 SW9       30.02F
WALTERBORO     CLEAR     75  73  94 S6        30.02F
BEAUFORT       CLEAR     81  75  82 S7        30.03F


...EASTERN GEORGIA...

CITY           SKY/WX    TMP DP  RH WIND       PRES   REMARKS
AUGUSTA BUSH F PTCLDY    73  72  96 CALM      30.01F
AUGUSTA DANIEL PTCLDY    78  72  81 CALM      30.03F
THOMSON        MOCLDY    75  75 100 CALM      30.07S
WASHINGTON     FAIR      77  77 100 W3        30.02F
CLAXTON        FAIR      75  73  94 CALM      30.03F
SYLVANIA       CLEAR     79  74  86 CALM      30.04S
SAVANNAH       CLEAR     80  72  76 S9        30.04S


...SOUTHERN NORTH CAROLINA...

CITY           SKY/WX    TMP DP  RH WIND       PRES   REMARKS
CHARLOTTE      MOCLDY    75  64  68 SW14G21   29.97S
MONROE         PTCLDY    76  66  71 SW14      29.97S
WADESBORO      CLOUDY    78  67  68 SW7       29.95F
ROCKINGHAM     CLOUDY    77  68  75 W10       29.96S
ASHEVILLE      CLOUDY    69  60  73 SW10      30.03S

$$


USA.gov is the U.S. government's official web portal to all federal, state and local government web resources and services.